Location: Memmingen
(47.9830°N, 10.1733°E)
Time: 08:29:42
(UTC+01:00)

Tiangong 2 - Visible Passes

Search period start: 19 February 2018 00:00
Search period end: 01 March 2018 00:00
Orbit: 384 x 388 km, 42.8° (Epoch: 18 February)

Date Brightness Start Highest point End Pass type
(mag) Time Alt. Az. Time Alt. Az. Time Alt. Az.
19 Feb 3.0 19:12:07 10° WSW 19:14:44 23° SSW 19:16:19 16° SSE visible
20 Feb 3.8 19:50:36 10° SW 19:52:07 13° SSW 19:52:36 13° SSW visible
21 Feb 3.5 18:51:10 10° WSW 18:53:24 18° SSW 18:55:39 10° SSE visible
23 Feb 4.0 18:30:31 10° SW 18:31:59 13° SSW 18:33:27 10° S visible
